Location: Newark
(58.9986°N, 38.5006°E)
Time: 08:33:47
(UTC+00:00)

Transit 4A - Visible Passes

Search period start: 20 April 2021 00:00
Search period end: 30 April 2021 00:00
Orbit: 869 x 975 km, 66.8° (Epoch: 19 April)

Date Brightness Start Highest point End Pass type
(mag) Time Alt. Az. Time Alt. Az. Time Alt. Az.
20 Apr 9.0 01:03:03 10° WNW 01:08:48 40° N 01:14:24 10° ENE visible
20 Apr 9.2 19:57:47 20° ESE 19:58:49 21° ESE 20:03:13 10° ENE visible
20 Apr 7.9 21:41:15 31° SSW 21:44:18 68° SE 21:50:18 10° NE visible
20 Apr 8.5 23:24:56 10° WSW 23:30:57 54° NNW 23:36:50 10° NE visible
21 Apr 8.9 20:06:16 25° SE 20:07:50 28° ESE 20:12:52 10° ENE visible
21 Apr 7.8 21:49:44 24° SW 21:53:35 84° SE 21:59:39 10° NE visible
21 Apr 8.7 23:34:32 10° W 23:40:27 48° NNW 23:46:15 10° NE visible
22 Apr 8.5 20:14:40 27° SSE 20:16:55 36° ESE 20:22:22 10° NE visible
22 Apr 7.9 21:58:07 18° SW 22:02:56 81° NW 22:08:59 10° NE visible
22 Apr 8.9 23:44:09 10° W 23:50:00 44° NNW 23:55:41 10° ENE visible
23 Apr 9.6 18:39:30 12° ESE 18:41:03 13° ESE 18:43:32 10° ENE visible
23 Apr 8.2 20:22:57 26° S 20:26:04 46° ESE 20:31:48 10° NE visible
23 Apr 8.1 22:06:24 11° WSW 22:12:20 68° NNW 22:18:20 10° NE visible
23 Apr 9.1 23:53:48 10° WNW 23:59:33 41° N 00:05:11 10° ENE visible
24 Apr 9.3 18:47:38 14° SE 18:49:58 17° ESE 18:53:47 10° ENE visible
24 Apr 7.9 20:31:04 20° SSW 20:35:16 59° SE 20:41:11 10° NE visible
24 Apr 8.4 22:15:42 10° WSW 22:21:46 58° NNW 22:27:41 10° NE visible
25 Apr 9.1 00:03:25 10° WNW 00:09:07 40° N 00:14:42 10° ENE visible
25 Apr 9.0 18:55:33 15° SSE 18:58:56 23° ESE 19:03:34 10° ENE visible
25 Apr 7.8 20:38:58 13° SW 20:44:31 74° SE 20:50:32 10° NE visible
25 Apr 8.7 22:25:16 10° W 22:31:15 51° NNW 22:37:05 10° NE visible
26 Apr 9.2 00:13:00 10° WNW 00:18:42 40° N 00:24:15 10° ENE visible
26 Apr 8.7 19:03:07 12° S 19:07:59 30° ESE 19:13:10 10° ENE visible
26 Apr 7.8 20:47:38 10° SW 20:53:50 90° SSE 20:59:53 10° NE visible
26 Apr 8.9 22:34:53 10° W 22:40:46 46° NNW 22:46:30 10° NE visible
27 Apr 9.2 00:22:34 10° WNW 00:28:16 41° N 00:33:51 10° E visible
27 Apr 8.4 19:11:26 10° S 19:17:05 39° ESE 19:22:39 10° NE visible
27 Apr 8.0 20:57:01 10° WSW 21:03:12 76° NW 21:09:13 10° NE visible
27 Apr 9.1 22:44:31 10° W 22:50:19 43° NNW 22:55:58 10° ENE visible
28 Apr 9.1 00:32:05 10° WNW 00:37:50 44° NNE 00:43:27 10° E visible
28 Apr 8.1 19:20:19 10° SSW 19:26:15 50° SE 19:32:02 10° NE visible
28 Apr 8.3 21:06:30 10° WSW 21:12:37 64° NNW 21:18:34 10° NE visible
28 Apr 9.2 22:54:09 10° WNW 22:59:53 41° N 23:05:28 10° ENE visible
29 Apr 9.0 00:41:32 10° NW 00:47:21 48° NNE 00:53:02 10° E visible
29 Apr 7.9 19:29:23 10° SSW 19:35:28 64° SE 19:41:25 10° NE visible
29 Apr 8.6 21:16:03 10° WSW 21:22:04 56° NNW 21:27:56 10° NE visible
29 Apr 9.2 23:03:46 10° WNW 23:09:27 40° N 23:15:00 10° ENE visible
